DLH5KL EDDM-EDDH

Flight info

Callsign DLH5KL
Flight time 0h 57m
Altitude 36000
Route INPUD3Q INPUD Y102 UPALA M726 NARUS DCT ABGUS DCT DIRBO/N0364F230 T902 RARUP RARUP3P
Aircraft A20N/M-SDE2E3FGHIRWXY/LB1

Departure

Time 2026-05-04 16:14
Airport Munich Airport (EDDM)

Arrival

Time 2026-05-04 17:11
Airport Hamburg Helmut Schmidt Airport (EDDH)
Time Latitude Longitude Altitude Speed Heading
2026-05-04 15:26 48.35366 11.79772 1475 ft 0 kts 83°
2026-05-04 15:55 48.35364 11.79754 1475 ft 2 kts 83°
2026-05-04 15:56 48.35363 11.79731 1476 ft 2 kts 84°
2026-05-04 15:56 48.35361 11.79709 1476 ft 2 kts 83°
2026-05-04 15:56 48.35360 11.79694 1476 ft 2 kts 82°
2026-05-04 15:56 48.35356 11.79673 1476 ft 2 kts 64°
2026-05-04 15:57 48.35348 11.79653 1476 ft 2 kts 51°
2026-05-04 15:57 48.35337 11.79637 1476 ft 2 kts 37°
2026-05-04 15:57 48.35324 11.79625 1476 ft 2 kts 23°
2026-05-04 15:57 48.35310 11.79618 1476 ft 2 kts
2026-05-04 15:58 48.35295 11.79617 1476 ft 1 kts 356°
2026-05-04 15:58 48.35289 11.79618 1476 ft 1 kts 352°
2026-05-04 15:58 48.35288 11.79618 1476 ft 0 kts 353°
2026-05-04 16:01 48.35289 11.79618 1476 ft 0 kts 353°
2026-05-04 16:02 48.35306 11.79615 1476 ft 5 kts 354°
2026-05-04 16:02 48.35363 11.79606 1476 ft 10 kts 352°
2026-05-04 16:02 48.35551 11.79575 1475 ft 14 kts 353°
2026-05-04 16:03 48.35653 11.79554 1474 ft 14 kts 349°
2026-05-04 16:03 48.35747 11.79487 1474 ft 12 kts 333°
2026-05-04 16:03 48.35830 11.79457 1473 ft 12 kts 355°
2026-05-04 16:03 48.35903 11.79391 1473 ft 12 kts 304°
2026-05-04 16:04 48.35983 11.79336 1472 ft 13 kts 354°
2026-05-04 16:04 48.36024 11.79329 1471 ft 0 kts 353°
2026-05-04 16:08 48.36041 11.79326 1471 ft 6 kts 354°
2026-05-04 16:08 48.36068 11.78981 1473 ft 15 kts 261°
2026-05-04 16:09 48.36039 11.78612 1474 ft 19 kts 264°
2026-05-04 16:09 48.36009 11.78203 1475 ft 18 kts 263°
2026-05-04 16:10 48.35980 11.77832 1476 ft 17 kts 262°
2026-05-04 16:11 48.35936 11.77268 1477 ft 18 kts 265°
2026-05-04 16:11 48.35930 11.77096 1478 ft 14 kts 287°
2026-05-04 16:12 48.36079 11.76967 1477 ft 0 kts 354°
2026-05-04 16:12 48.36189 11.76948 1476 ft 12 kts 352°
2026-05-04 16:13 48.36304 11.77119 1475 ft 13 kts 83°
2026-05-04 16:13 48.36395 11.78305 1472 ft 131 kts 83°
2026-05-04 16:14 48.36644 11.81801 2574 ft 177 kts 83°
2026-05-04 16:14 48.36986 11.85470 4263 ft 188 kts 68°
2026-05-04 16:15 48.40897 11.86874 6013 ft 246 kts 342°
2026-05-04 16:16 48.43760 11.83368 6895 ft 283 kts 311°
2026-05-04 16:16 48.47599 11.76422 6932 ft 285 kts 310°
2026-05-04 16:17 48.50188 11.71821 6931 ft 285 kts 311°
2026-05-04 16:18 48.54084 11.64937 6928 ft 286 kts 311°
2026-05-04 16:18 48.55509 11.62764 7151 ft 294 kts 327°
2026-05-04 16:19 48.61277 11.59395 9986 ft 301 kts 339°
2026-05-04 16:19 48.65357 11.57060 11175 ft 330 kts 337°
2026-05-04 16:20 48.71999 11.53019 13530 ft 347 kts 336°
2026-05-04 16:20 48.76535 11.50216 15127 ft 355 kts 336°
2026-05-04 16:21 48.83518 11.45881 17412 ft 365 kts 335°
2026-05-04 16:22 48.88285 11.42916 18836 ft 372 kts 335°
2026-05-04 16:22 48.95649 11.38315 20960 ft 382 kts 335°
2026-05-04 16:23 49.03129 11.33620 22979 ft 391 kts 334°
2026-05-04 16:24 49.13463 11.27101 25491 ft 404 kts 334°
2026-05-04 16:25 49.18745 11.23828 26625 ft 411 kts 337°
2026-05-04 16:26 49.30450 11.22102 28631 ft 431 kts 358°
2026-05-04 16:26 49.39569 11.22250 29912 ft 438 kts 357°
2026-05-04 16:27 49.45709 11.22307 30656 ft 443 kts 357°
2026-05-04 16:28 49.54985 11.22385 32136 ft 440 kts 356°
2026-05-04 16:28 49.64184 11.22414 33490 ft 437 kts 356°
2026-05-04 16:29 49.76397 11.22426 34970 ft 437 kts 356°
2026-05-04 16:30 49.85654 11.22480 35674 ft 441 kts 356°
2026-05-04 16:31 49.91848 11.22518 35935 ft 443 kts 356°
2026-05-04 16:32 50.10362 11.22625 35947 ft 442 kts 356°
2026-05-04 16:33 50.22756 11.22706 35945 ft 442 kts 356°
2026-05-04 16:34 50.31968 11.22754 35933 ft 443 kts 356°
2026-05-04 16:35 50.50313 11.20647 35946 ft 439 kts 350°
2026-05-04 16:36 50.59443 11.19254 35942 ft 439 kts 350°
2026-05-04 16:37 50.68723 11.17879 35939 ft 439 kts 351°
2026-05-04 16:38 50.81038 11.16637 35931 ft 440 kts 352°
2026-05-04 16:39 50.96451 11.15030 35932 ft 441 kts 352°
2026-05-04 16:40 51.08803 11.13722 35937 ft 440 kts 351°
2026-05-04 16:41 51.24228 11.12091 35935 ft 440 kts 351°
2026-05-04 16:43 51.39840 11.10418 35930 ft 441 kts 351°
2026-05-04 16:43 51.49157 11.09413 35931 ft 441 kts 351°
2026-05-04 16:45 51.67794 11.07390 35932 ft 441 kts 351°
2026-05-04 16:46 51.83272 11.05692 35930 ft 442 kts 351°
2026-05-04 16:47 51.95541 11.03476 35927 ft 441 kts 347°
2026-05-04 16:48 52.07828 11.00827 35922 ft 441 kts 347°
2026-05-04 16:49 52.20091 10.98205 35924 ft 440 kts 347°
2026-05-04 16:50 52.32334 10.95565 35918 ft 440 kts 346°
2026-05-04 16:51 52.41533 10.93566 35550 ft 445 kts 346°
2026-05-04 16:51 52.47787 10.92197 33907 ft 455 kts 346°
2026-05-04 16:52 52.54103 10.90817 32333 ft 457 kts 346°
2026-05-04 16:52 52.57280 10.90125 31554 ft 457 kts 346°
2026-05-04 16:53 52.63596 10.88738 29989 ft 457 kts 346°
2026-05-04 16:53 52.73057 10.86646 27609 ft 455 kts 347°
2026-05-04 16:54 52.76196 10.85951 26831 ft 454 kts 347°
2026-05-04 16:55 52.88655 10.83276 23706 ft 447 kts 348°
2026-05-04 16:55 52.94804 10.82043 22176 ft 442 kts 349°
2026-05-04 16:56 53.00860 10.80814 20675 ft 438 kts 349°
2026-05-04 16:56 53.09847 10.78978 18453 ft 429 kts 350°
2026-05-04 16:57 53.12823 10.78373 17754 ft 425 kts 350°
2026-05-04 16:57 53.17187 10.77487 16857 ft 416 kts 350°
2026-05-04 16:58 53.25634 10.75756 15040 ft 386 kts 350°
2026-05-04 16:58 53.27485 10.75371 14618 ft 383 kts 350°
2026-05-04 16:59 53.32724 10.74286 13402 ft 359 kts 350°
2026-05-04 17:00 53.42014 10.72351 11457 ft 324 kts 349°
2026-05-04 17:00 53.48627 10.70449 10028 ft 318 kts 345°
2026-05-04 17:01 53.52972 10.68879 9055 ft 314 kts 345°
2026-05-04 17:01 53.57110 10.67381 8086 ft 286 kts 345°
2026-05-04 17:02 53.60652 10.64744 7086 ft 274 kts 326°
2026-05-04 17:02 53.63893 10.61320 6271 ft 270 kts 325°
2026-05-04 17:03 53.65487 10.59609 5905 ft 268 kts 325°
2026-05-04 17:03 53.67061 10.57905 5523 ft 266 kts 325°
2026-05-04 17:03 53.70120 10.54345 4893 ft 260 kts 312°
2026-05-04 17:04 53.71929 10.49112 4240 ft 252 kts 295°
2026-05-04 17:04 53.73378 10.43834 3633 ft 241 kts 295°
2026-05-04 17:05 53.74751 10.38687 3049 ft 236 kts 295°
2026-05-04 17:05 53.75859 10.33715 2974 ft 215 kts 274°
2026-05-04 17:06 53.75646 10.28636 2979 ft 216 kts 264°
2026-05-04 17:06 53.75463 10.26106 2963 ft 216 kts 264°
2026-05-04 17:07 53.74283 10.21700 3042 ft 200 kts 236°
2026-05-04 17:07 53.74006 10.21070 3025 ft 195 kts 234°
2026-05-04 17:07 53.72615 10.18138 2795 ft 189 kts 232°
2026-05-04 17:07 53.71769 10.16435 2541 ft 188 kts 231°
2026-05-04 17:08 53.70921 10.14737 2288 ft 186 kts 232°
2026-05-04 17:08 53.69345 10.11572 1805 ft 168 kts 232°
2026-05-04 17:08 53.68602 10.10075 1594 ft 161 kts 233°
2026-05-04 17:09 53.67883 10.08623 1388 ft 159 kts 233°
2026-05-04 17:09 53.67165 10.07174 1181 ft 159 kts 233°
2026-05-04 17:09 53.66453 10.05737 965 ft 158 kts 233°
2026-05-04 17:10 53.65047 10.02898 519 ft 152 kts 233°
2026-05-04 17:10 53.63039 9.98815 62 ft 129 kts 229°
2026-05-04 17:11 53.62652 9.98032 62 ft 50 kts 237°
2026-05-04 17:11 53.62485 9.97808 62 ft 16 kts 137°
2026-05-04 17:11 53.62431 9.97902 62 ft 0 kts 91°
2026-05-04 17:12 53.62431 9.97905 62 ft 1 kts 91°
2026-05-04 17:12 53.62470 9.98111 62 ft 18 kts 53°
2026-05-04 17:13 53.62784 9.98749 62 ft 21 kts 51°
2026-05-04 17:14 53.63030 9.99243 62 ft 12 kts 51°
2026-05-04 17:14 53.63085 9.99369 62 ft 13 kts 55°